[TLELIST] Archives

 

[TLELIST] Current TLEs

May 7th 2025 PDT

HST 1 20580U 90037B 25126.81996045 .00007392 00000-0 28065-3 0 9997 2 20580 28.4683 325.2271 0002330 0.9987 359.0612 15.24864454726364 ISS (ZARYA) 1 25544U 98067A 25127.18846187 .00009102 00000-0 17086-3 0 9997 2 25544 51.6346 150.1483 0002326 85.5682 274.5572 15.49388906508802 CXO 1 25867U 99040B 25129.76795735 .00000570 00000-0 00000+0 0 9999 2 25867 48.6962 131.5006 8481473 308.9436 359.8594 0.37812153 26954 ...Continue Reading

[TLELIST] Current TLEs

May 6th 2025 PDT

HST 1 20580U 90037B 25125.83823334 .00008371 00000-0 31902-3 0 9990 2 20580 28.4685 331.8770 0002222 349.9992 10.0557 15.24851170726212 ISS (ZARYA) 1 25544U 98067A 25126.17586691 .00009140 00000-0 17165-3 0 9996 2 25544 51.6365 155.1559 0002438 84.5145 23.8654 15.49368941508644 CXO 1 25867U 99040B 25127.12296567 .00000591 00000-0 00000+0 0 9999 2 25867 48.6570 131.6032 8487592 308.9148 359.7795 0.37811089 26945 ...Continue Reading

[TLELIST] Current TLEs

May 5th 2025 PDT

HST 1 20580U 90037B 25124.85649720 .00008496 00000-0 32406-3 0 9994 2 20580 28.4688 338.5262 0002176 339.4973 20.5534 15.24835573726328 ISS (ZARYA) 1 25544U 98067A 25125.18896867 .00008639 00000-0 16281-3 0 9995 2 25544 51.6348 160.0455 0002288 80.6014 279.5233 15.49349232508498 CXO 1 25867U 99040B 25127.12296567 .00000591 00000-0 00000+0 0 9999 2 25867 48.6570 131.6032 8487592 308.9148 359.7795 0.37811089 26945 ...Continue Reading

[TLELIST] Current TLEs

May 4th 2025 PDT

HST 1 20580U 90037B 25123.94020127 .00008937 00000-0 34147-3 0 9991 2 20580 28.4691 344.7322 0002137 328.9073 31.1394 15.24819748725922 ISS (ZARYA) 1 25544U 98067A 25124.17583429 .00010980 00000-0 20479-3 0 9996 2 25544 51.6364 165.0572 0002347 78.0135 27.5001 15.49334428508330 CXO 1 25867U 99040B 25124.47797547 .00000650 00000-0 00000-0 0 9995 2 25867 48.5990 131.7302 8493358 308.8609 359.7335 0.37807267 15771 ...Continue Reading

[TLELIST] Current TLEs

May 3rd 2025 PDT

HST 1 20580U 90037B 25123.02389578 .00010433 00000-0 40013-3 0 9991 2 20580 28.4692 350.9378 0002052 318.9685 41.0754 15.24803224726043 ISS (ZARYA) 1 25544U 98067A 25123.39976278 .00012717 00000-0 23598-3 0 9992 2 25544 51.6365 168.8960 0002156 81.8387 12.2253 15.49318505508217 CXO 1 25867U 99040B 25124.47797547 .00000650 00000-0 00000-0 0 9995 2 25867 48.5990 131.7302 8493358 308.8609 359.7335 0.37807267 15771 ...Continue Reading

[TLELIST] Current TLEs

May 3rd 2025 PDT

HST 1 20580U 90037B 25123.02389578 .00010433 00000-0 40013-3 0 9991 2 20580 28.4692 350.9378 0002052 318.9685 41.0754 15.24803224726043 ISS (ZARYA) 1 25544U 98067A 25123.39976278 .00012717 00000-0 23598-3 0 9992 2 25544 51.6365 168.8960 0002156 81.8387 12.2253 15.49318505508217 CXO 1 25867U 99040B 25124.47797547 .00000650 00000-0 00000-0 0 9995 2 25867 48.5990 131.7302 8493358 308.8609 359.7335 0.37807267 15771 ...Continue Reading

[TLELIST] Current TLEs

May 3rd 2025 PDT

HST 1 20580U 90037B 25123.02389578 .00010433 00000-0 40013-3 0 9991 2 20580 28.4692 350.9378 0002052 318.9685 41.0754 15.24803224726043 ISS (ZARYA) 1 25544U 98067A 25123.39976278 .00012717 00000-0 23598-3 0 9992 2 25544 51.6365 168.8960 0002156 81.8387 12.2253 15.49318505508217 CXO 1 25867U 99040B 25124.47797547 .00000650 00000-0 00000-0 0 9995 2 25867 48.5990 131.7302 8493358 308.8609 359.7335 0.37807267 15771 ...Continue Reading

[TLELIST] Current TLEs

May 2nd 2025 PDT

HST 1 20580U 90037B 25121.91122417 .00009564 00000-0 36641-3 0 9999 2 20580 28.4692 358.4728 0001966 305.9279 54.1133 15.24779315725872 ISS (ZARYA) 1 25544U 98067A 25122.16310700 .00011873 00000-0 22114-3 0 9993 2 25544 51.6358 175.0201 0002090 83.0482 309.0274 15.49285613508026 CXO 1 25867U 99040B 25124.47797547 .00000650 00000-0 00000-0 0 9995 2 25867 48.5990 131.7302 8493358 308.8609 359.7335 0.37807267 15771 ...Continue Reading

[TLELIST] Current TLEs

May 2nd 2025 PDT

HST 1 20580U 90037B 25121.91122417 .00009564 00000-0 36641-3 0 9999 2 20580 28.4692 358.4728 0001966 305.9279 54.1133 15.24779315725872 ISS (ZARYA) 1 25544U 98067A 25122.16310700 .00011873 00000-0 22114-3 0 9993 2 25544 51.6358 175.0201 0002090 83.0482 309.0274 15.49285613508026 CXO 1 25867U 99040B 25124.47797547 .00000650 00000-0 00000-0 0 9995 2 25867 48.5990 131.7302 8493358 308.8609 359.7335 0.37807267 15771 ...Continue Reading

[TLELIST] Current TLEs

May 2nd 2025 PDT

HST 1 20580U 90037B 25121.91122417 .00009564 00000-0 36641-3 0 9999 2 20580 28.4692 358.4728 0001966 305.9279 54.1133 15.24779315725872 ISS (ZARYA) 1 25544U 98067A 25122.16310700 .00011873 00000-0 22114-3 0 9993 2 25544 51.6358 175.0201 0002090 83.0482 309.0274 15.49285613508026 CXO 1 25867U 99040B 25124.47797547 .00000650 00000-0 00000-0 0 9995 2 25867 48.5990 131.7302 8493358 308.8609 359.7335 0.37807267 15771 ...Continue Reading
  • This mailing list is a public mailing list - anyone may join or leave, at any time.
  • This mailing list is announce-only.

International Space Station (ISS) / Hubble Space Telescope (HST) / Chandra X-Ray Observatory Orbital Data via EMAIL

Privacy Policy:

Private list